Regional Weather Roundup
Issued by NWS Newport/Morehead, NC

Current Version | Previous Version | Graphics & Text | Print | Product List | Glossary On
Versions: 1 2 3 4 5 6 7 8 9 10 11 12 13 14 15 16 17 18 19 20 21 22 23 24 25 26 27 28 29 30 31 32 33 34 35 36 37 38 39 40 41 42 43 44 45 46 47 48 49 50
000 ASUS42 KMHX 231313 RWRMHX WEATHER ROUNDUP FOR EASTERN NORTH CAROLINA NATIONAL WEATHER SERVICE NEWPORT/MOREHEAD CITY NC 900 AM EDT TUE MAY 23 2017 NOTE: "FAIR" INDICATES FEW OR NO CLOUDS BELOW 12,000 FEET WITH NO SIGNIFICANT WEATHER AND/OR OBSTRUCTIONS TO VISIBILITY NCZ015>017-031-032-045>047-102-103-231400- NORTH COAST CITY SKY/WX TMP DP RH WIND PRES REMARKS EDENTON DRIZZLE 72 69 92 CALM 29.89F ELIZABETH CITY RAIN 67 67 100 NE15 29.90S FOG KITTY HAWK NOT AVBL MANTEO RAIN 66 65 97 E12 29.91S $$ NCZ045>047-081-094-103-104-231400- CENTRAL COAST CITY SKY/WX TMP DP RH WIND PRES REMARKS FRISCO NOT AVBL $$ NCZ095-097-098-100-101-231400- SOUTHERN COAST CITY SKY/WX TMP DP RH WIND PRES REMARKS BEAUFORT LGT RAIN 74 72 93 S12 29.88S CEDAR ISLAND NOT AVBL JACKSONVILLE LGT RAIN 72 72 100 S6 29.86S FOG PINEY ISLAND NOT AVBL WILMINGTON CLOUDY 73 71 93 S8 29.86S $$ NCZ011>013-027>030-043-044-078>080-089-090>093-098-231400- COASTAL PLAIN CITY SKY/WX TMP DP RH WIND PRES REMARKS AHOSKIE RAIN 67 66 99 NE5 29.90R CLINTON CLOUDY 68 68 100 CALM 29.86F ELIZABETHTOWN CLOUDY 71 71 100 S3 29.85F GOLDSBORO RAIN 68 68 100 E3 29.86R FOG GREENVILLE RAIN 68 68 100 CALM 29.91R HAVELOCK LGT RAIN 72 70 93 S10 29.88S FOG KENANSVILLE CLOUDY 68 68 100 SE3 29.87S FOG KINSTON RAIN 68 66 94 E7 29.88F NEW BERN LGT RAIN 71 71 100 S3 29.88F RICHLANDS CLOUDY 71 70 96 S8 29.87S ROCKY MOUNT RAIN 68 68 100 E3 29.88F FOG WASHINGTON RAIN 67 66 98 CALM 29.90R VSB 1 WHITEVILLE CLOUDY 73 71 94 S3 29.85F $$ AMZ130-135-150-152-154-156-158-170-250-252-270-ANZ085-086-088-633-658-670-231400- MARINE OBSERVATIONS STATION/POSITION TIME TEMP WIND PRES WAVE SWELL AIR SEA DIR/SP/G HT/PER HT/PER (UTC) (F) (DEG/KT/KT) (MB) (FT/S) (FT/S) CHESAPEAKE LIGHT NOT AVBL 64 E VA BEACH 1250 64 64 40/ 16/ 17 1013.3 4/ 7 2/ 7 DUCK 1248 64 65 60/ 17/ 18 1012.3 2 E DUCK 1300 65 N/A 3/ 8 OREGON INLET 1242 67 74 20/ 6/ 8 1012.5 13E OREGON INLT 1248 66 N/A 3/ 5 3/ 5 HATTERAS CG 1248 72 75 210/ 11/ 15 1012.0 DIAMOND BUOY 1250 74 77 250/ 14/ 16 1012.1 4/ 5 2/ 8 CAPE LOOKOUT 1300 72 190/ 13/ 15 1011.7 BEAUFORT LAB 1248 73 74 200/ 12/ 15 1011.2 30 SE NEW RVR IN 1208 74 76 190/ 16/ 21 1011.6 30 SE NEW RVR IN 1243 76 N/A 4/ 4 27 SE WRIGHTSVLE 1208 72 75 190/ 16/ 19 1011.4 5 SE WRIGHTSVLE 1208 73 75 160/ 12/ 19 1012.1 225 S CAPE HAT 1250 76 76 170/ 17/ 21 1015.2 4/ 4 2/ 8 41 SE CHARLESTON 1250 77 77 230/ 16/ 21 1011.5 6/ 6 2/11 $$

USA.gov is the U.S. government's official web portal to all federal, state and local government web resources and services.